Home   Weather   Mombasa   Past weeks

Flag for Kenya Past Weather in Mombasa, Kenya — Yesterday and Last 2 Weeks

Now
73 °F

Passing clouds.


Feels Like: 74 °F
Forecast: 72 / 81 °F
Wind: 3 mph from South

Location: Mombasa Airport

Current Time: Aug 30, 2016 at 10:16:46 PM

Latest Report: Aug 30, 2016 at 9:00 PM


Visibility: N/A

Pressure: 30.09 "Hg

Humidity: 78%

Dew Point: 66 °F

Location of MombasaLocation

Past Weather in Mombasa — Graph

°F

Mombasa Temperature Yesterday

Maximum temperature yesterday: 81 °F (at 2:00 PM)
Minimum temperature yesterday: 72 °F (at 9:00 PM)
Average temperature yesterday: 76 °F

High & Low Weather Summary for the Past Weeks

 TemperatureHumidityPressure
High86 °F (Aug 17, 1:00 PM)100% (Aug 18, 3:00 AM)30.15 "Hg (Aug 18, 3:00 AM)
Low70 °F (Aug 21, 3:00 AM)42% (Aug 25, 11:00 AM)29.98 "Hg (Aug 17, 4:00 PM)
Average77 °F78%30.04 "Hg
* Reported Aug 15 9:00 PM — Aug 30 9:00 PM, Mombasa, Weather by CustomWeather, © 2016

Note: Actual official high and low records may vary slightly from our data, if they occured in-between our weather recording intervals... More about our weather records

Advertising

Mombasa Weather History for the Previous 24 Hours

Scroll right to see more
 ConditionsComfort  
Time TempWeatherWind HumidityBarometerVisibility
9:00 PM
Tue, Aug 30
73 °FPassing clouds.3 mph78%30.09 "HgN/A
8:00 PM73 °FPassing clouds.3 mph78%30.07 "HgN/A
7:00 PM73 °FPassing clouds.5 mph83%30.07 "HgN/A
6:00 PM75 °FBroken clouds.7 mph78%30.04 "HgN/A
5:00 PM73 °FBroken clouds.13 mph89%30.04 "HgN/A
4:00 PM75 °FLight rain. Partly sunny.10 mph83%30.04 "HgN/A
3:00 PM77 °FBroken clouds.16 mph74%30.04 "HgN/A
2:00 PM79 °FPartly sunny.10 mph70%30.07 "HgN/A
1:00 PM81 °FPartly sunny.8 mph66%30.09 "HgN/A
12:00 PM81 °FPartly sunny.9 mph66%30.09 "HgN/A
11:00 AM81 °FPartly sunny.7 mph70%30.12 "HgN/A
10:00 AM79 °FPartly sunny.9 mph70%30.12 "HgN/A
9:00 AM77 °FPartly sunny.9 mph79%30.12 "HgN/A
8:00 AM75 °FPartly sunny.8 mph83%30.12 "HgN/A
7:00 AM70 °FPassing clouds.6 mph94%30.09 "HgN/A
6:00 AM70 °FPassing clouds.6 mph94%30.07 "HgN/A
4:00 AM70 °FPassing clouds.5 mph94%30.04 "HgN/A
3:00 AM70 °FPassing clouds.5 mph94%30.04 "HgN/A
2:00 AM72 °FPassing clouds.5 mph83%30.07 "HgN/A
12:00 AM72 °FPassing clouds.6 mph88%30.09 "HgN/A
11:00 PM
Mon, Aug 29
72 °FPassing clouds.7 mph94%30.12 "HgN/A
Weather by CustomWeather, © 2016

See weather overviewHow to use our weather pages